GEFSCGP_prec_meanprecacc_252.txt.gz
Total_Precipitation_Accumulation
1.96 1.97 1.50 0.93 0.70 0.56 0.51 0.54 0.48 0.42 0.40 0.53 0.58 0.57 0.58 0.56 0.53 0.55 0.58 0.59 0.69 0.84 0.96 1.14 1.32 1.64 1.87 2.15 2.42 2.48 2.70 2.88 3.05 3.16 3.10 2.92 2.71 2.58 2.49 2.44 2.37 2.18 1.99 1.87
1.88 1.47 0.81 0.63 0.66 0.66 0.65 0.67 0.54 0.46 0.40 0.49 0.53 0.51 0.56 0.61 0.58 0.51 0.49 0.51 0.57 0.71 0.82 0.93 1.09 1.36 1.57 1.75 1.94 2.09 2.26 2.48 2.68 2.81 2.80 2.83 2.86 2.71 2.51 2.46 2.43 2.37 2.27 2.11
1.34 0.87 0.60 0.68 0.78 0.86 0.76 0.69 0.58 0.52 0.45 0.50 0.53 0.56 0.53 0.55 0.56 0.53 0.50 0.50 0.57 0.70 0.71 0.78 0.89 1.13 1.29 1.43 1.61 1.76 1.91 2.07 2.17 2.52 2.78 2.81 2.89 2.82 2.53 2.29 2.15 2.24 2.34 2.32
1.12 0.67 0.68 0.82 0.79 0.81 0.85 0.54 0.52 0.55 0.74 0.78 0.57 0.72 0.53 0.48 0.50 0.54 0.54 0.55 0.63 0.71 0.74 0.78 0.83 0.97 1.06 1.13 1.32 1.52 1.71 1.86 1.90 2.16 2.43 2.45 2.34 2.29 2.18 2.12 2.15 2.22 2.28 2.34
1.18 0.76 0.77 0.91 0.68 0.68 0.71 0.52 0.60 0.68 0.81 0.85 0.55 0.65 0.58 0.46 0.55 0.58 0.57 0.60 0.65 0.64 0.67 0.77 0.79 0.82 0.90 0.93 1.02 1.22 1.52 1.67 1.73 1.80 1.99 2.21 2.25 2.20 2.21 2.22 2.20 2.16 2.08 2.14
0.88 0.77 0.86 0.80 0.59 0.66 0.73 0.84 0.96 0.99 1.26 1.27 0.53 0.55 0.58 0.53 0.59 0.57 0.52 0.56 0.58 0.57 0.62 0.69 0.69 0.70 0.81 0.80 0.81 0.95 1.16 1.46 1.62 1.68 1.76 1.90 1.97 1.95 1.98 2.07 2.12 2.14 2.05 1.95
1.07 0.87 0.81 0.81 0.97 0.98 1.16 1.71 2.16 2.03 1.83 0.97 0.32 0.42 0.59 0.52 0.51 0.55 0.52 0.49 0.51 0.55 0.56 0.62 0.67 0.72 0.76 0.74 0.69 0.75 0.88 1.13 1.37 1.46 1.48 1.57 1.72 1.78 1.76 1.79 1.93 1.98 1.94 1.84
1.15 1.03 0.74 0.84 1.13 1.21 1.12 1.45 1.68 1.34 0.86 0.46 0.31 0.42 0.52 0.45 0.44 0.43 0.38 0.37 0.43 0.50 0.49 0.53 0.57 0.61 0.61 0.61 0.64 0.68 0.77 0.87 1.00 1.10 1.18 1.29 1.41 1.52 1.50 1.50 1.62 1.70 1.69 1.69
0.96 0.80 0.51 0.60 0.74 0.91 1.10 1.13 0.98 1.17 0.79 0.53 0.39 0.40 0.41 0.33 0.33 0.34 0.32 0.34 0.37 0.39 0.38 0.41 0.45 0.47 0.44 0.46 0.53 0.59 0.62 0.68 0.78 0.85 0.94 1.07 1.12 1.25 1.34 1.37 1.44 1.54 1.56 1.53
0.93 0.97 0.57 0.62 0.87 0.98 1.01 0.96 1.15 1.73 1.35 0.77 0.41 0.36 0.43 0.37 0.34 0.36 0.34 0.33 0.32 0.30 0.32 0.34 0.40 0.42 0.39 0.38 0.39 0.42 0.50 0.63 0.70 0.71 0.78 0.88 0.96 1.02 1.11 1.21 1.27 1.31 1.30 1.29
0.83 1.16 0.84 0.82 1.08 1.04 1.04 1.24 1.36 1.42 1.15 0.99 0.67 0.53 0.45 0.38 0.35 0.36 0.36 0.32 0.30 0.28 0.31 0.31 0.33 0.36 0.40 0.37 0.34 0.34 0.41 0.52 0.60 0.62 0.67 0.73 0.80 0.86 0.91 0.96 1.02 1.07 1.08 1.09
0.81 1.31 1.05 0.72 0.62 0.68 0.88 1.01 1.22 1.63 1.24 0.93 0.79 0.61 0.41 0.34 0.32 0.33 0.33 0.33 0.32 0.33 0.34 0.31 0.29 0.30 0.37 0.37 0.37 0.35 0.39 0.46 0.53 0.57 0.62 0.68 0.70 0.73 0.80 0.87 0.86 0.87 0.91 0.93
1.08 1.57 1.44 1.03 0.90 0.90 1.03 0.91 0.96 1.33 1.62 1.27 1.00 0.65 0.39 0.29 0.27 0.28 0.29 0.32 0.33 0.35 0.36 0.34 0.31 0.29 0.33 0.36 0.37 0.36 0.39 0.44 0.49 0.55 0.57 0.62 0.65 0.66 0.69 0.76 0.80 0.81 0.85 0.91
1.32 1.56 1.31 1.10 1.04 1.07 1.00 0.80 0.91 1.62 2.03 1.20 0.68 0.46 0.32 0.29 0.33 0.33 0.31 0.31 0.35 0.37 0.37 0.37 0.40 0.36 0.34 0.34 0.34 0.33 0.35 0.39 0.43 0.50 0.54 0.56 0.62 0.65 0.65 0.67 0.71 0.75 0.77 0.83
1.11 1.45 0.98 0.64 0.51 0.69 0.74 0.73 0.84 1.22 1.25 1.18 0.68 0.43 0.38 0.37 0.42 0.40 0.35 0.31 0.31 0.33 0.34 0.34 0.37 0.39 0.37 0.35 0.34 0.32 0.32 0.35 0.38 0.45 0.50 0.52 0.57 0.61 0.65 0.66 0.68 0.73 0.75 0.78
0.90 1.19 0.97 0.70 0.44 0.53 0.62 0.60 0.63 0.74 0.80 0.81 0.60 0.55 0.45 0.41 0.38 0.36 0.34 0.31 0.31 0.31 0.32 0.32 0.30 0.32 0.33 0.35 0.36 0.35 0.34 0.34 0.37 0.40 0.44 0.48 0.51 0.54 0.60 0.65 0.67 0.69 0.74 0.80
0.81 1.06 1.23 0.87 0.50 0.63 0.77 0.69 0.68 0.70 0.69 0.71 0.73 0.65 0.51 0.47 0.42 0.39 0.36 0.33 0.31 0.27 0.25 0.26 0.26 0.28 0.29 0.30 0.32 0.34 0.34 0.34 0.36 0.38 0.40 0.44 0.49 0.53 0.56 0.64 0.70 0.77 0.82 0.91
0.56 0.91 1.35 1.01 0.71 0.90 0.73 0.55 0.57 0.61 0.64 0.67 0.64 0.55 0.49 0.46 0.44 0.41 0.37 0.31 0.28 0.25 0.23 0.20 0.21 0.22 0.22 0.22 0.25 0.29 0.31 0.33 0.34 0.37 0.44 0.47 0.50 0.60 0.66 0.68 0.76 0.86 0.93 1.01
0.33 0.77 1.31 1.16 0.89 0.61 0.42 0.39 0.52 0.60 0.65 0.62 0.49 0.39 0.37 0.36 0.38 0.39 0.33 0.28 0.26 0.24 0.25 0.23 0.21 0.21 0.21 0.21 0.24 0.30 0.34 0.36 0.35 0.37 0.44 0.50 0.54 0.65 0.74 0.74 0.78 0.86 0.92 0.99
0.30 0.64 1.27 1.22 1.03 0.59 0.41 0.26 0.29 0.47 0.70 0.51 0.42 0.40 0.39 0.39 0.46 0.41 0.32 0.28 0.28 0.25 0.24 0.27 0.27 0.25 0.26 0.28 0.30 0.35 0.41 0.48 0.49 0.48 0.52 0.59 0.67 0.78 0.82 0.80 0.80 0.80 0.81 0.83
0.49 0.88 1.18 1.03 0.97 0.53 0.37 0.23 0.25 0.63 0.76 0.40 0.38 0.40 0.42 0.45 0.45 0.38 0.29 0.26 0.29 0.30 0.28 0.28 0.31 0.33 0.34 0.36 0.37 0.40 0.45 0.57 0.63 0.64 0.65 0.68 0.74 0.79 0.80 0.78 0.74 0.71 0.67 0.68
0.48 0.66 0.74 0.78 1.00 0.74 0.39 0.30 0.54 0.69 0.41 0.35 0.36 0.40 0.42 0.40 0.33 0.29 0.29 0.28 0.27 0.28 0.28 0.31 0.35 0.38 0.38 0.44 0.50 0.51 0.53 0.59 0.64 0.67 0.66 0.66 0.66 0.68 0.72 0.72 0.69 0.65 0.63 0.63
0.51 0.64 0.66 0.69 0.78 0.67 0.51 0.54 0.55 0.45 0.40 0.34 0.35 0.37 0.37 0.36 0.35 0.29 0.26 0.26 0.27 0.29 0.30 0.33 0.40 0.43 0.45 0.46 0.51 0.55 0.53 0.53 0.56 0.60 0.62 0.59 0.55 0.56 0.58 0.60 0.62 0.62 0.61 0.60
0.46 0.39 0.48 0.58 0.59 0.50 0.47 0.41 0.37 0.37 0.39 0.35 0.32 0.33 0.36 0.38 0.34 0.31 0.29 0.28 0.26 0.27 0.29 0.32 0.35 0.37 0.39 0.41 0.42 0.45 0.43 0.42 0.45 0.48 0.52 0.53 0.50 0.49 0.49 0.50 0.54 0.57 0.58 0.57
0.50 0.43 0.46 0.52 0.47 0.38 0.37 0.37 0.37 0.34 0.31 0.28 0.26 0.26 0.31 0.32 0.32 0.32 0.32 0.31 0.29 0.28 0.29 0.30 0.32 0.35 0.37 0.36 0.37 0.38 0.38 0.38 0.41 0.41 0.42 0.44 0.47 0.49 0.50 0.51 0.54 0.58 0.59 0.64
0.41 0.45 0.52 0.58 0.46 0.45 0.46 0.39 0.35 0.33 0.32 0.30 0.28 0.26 0.25 0.27 0.30 0.28 0.30 0.29 0.30 0.32 0.31 0.30 0.31 0.33 0.38 0.38 0.36 0.35 0.36 0.37 0.41 0.43 0.43 0.44 0.47 0.48 0.49 0.50 0.54 0.61 0.62 0.67

GEFSCGP_prec_meanprecacc_258.txt.gz
Total_Precipitation_Accumulation
1.99 2.01 1.54 0.96 0.73 0.58 0.53 0.56 0.49 0.43 0.41 0.55 0.60 0.58 0.59 0.56 0.54 0.57 0.59 0.60 0.70 0.85 0.98 1.16 1.35 1.69 1.93 2.22 2.51 2.57 2.79 2.95 3.11 3.21 3.16 2.98 2.77 2.63 2.54 2.49 2.43 2.25 2.05 1.92
1.91 1.51 0.83 0.65 0.67 0.67 0.66 0.69 0.55 0.46 0.41 0.51 0.54 0.52 0.57 0.62 0.59 0.53 0.51 0.53 0.58 0.72 0.84 0.96 1.13 1.41 1.62 1.80 2.00 2.16 2.33 2.55 2.74 2.85 2.84 2.87 2.90 2.75 2.56 2.49 2.46 2.43 2.34 2.17
1.36 0.89 0.62 0.70 0.80 0.88 0.78 0.71 0.59 0.53 0.47 0.53 0.55 0.57 0.53 0.55 0.57 0.54 0.52 0.52 0.58 0.71 0.73 0.80 0.92 1.17 1.34 1.47 1.66 1.82 1.98 2.13 2.23 2.57 2.83 2.85 2.94 2.87 2.58 2.34 2.19 2.28 2.41 2.40
1.13 0.68 0.69 0.85 0.81 0.83 0.87 0.54 0.53 0.57 0.76 0.82 0.60 0.76 0.55 0.49 0.51 0.54 0.55 0.56 0.65 0.73 0.76 0.80 0.85 1.01 1.10 1.17 1.36 1.57 1.77 1.93 1.97 2.21 2.47 2.49 2.37 2.33 2.22 2.15 2.19 2.24 2.31 2.40
1.19 0.76 0.78 0.93 0.69 0.70 0.72 0.53 0.62 0.70 0.84 0.89 0.59 0.69 0.62 0.48 0.56 0.58 0.58 0.61 0.67 0.66 0.69 0.79 0.82 0.86 0.95 0.97 1.06 1.26 1.57 1.74 1.80 1.85 2.04 2.25 2.29 2.24 2.25 2.24 2.23 2.18 2.10 2.16
0.89 0.78 0.87 0.81 0.60 0.68 0.75 0.86 0.98 1.02 1.31 1.33 0.55 0.59 0.62 0.55 0.60 0.58 0.53 0.58 0.60 0.59 0.63 0.71 0.72 0.75 0.87 0.86 0.86 1.00 1.20 1.51 1.69 1.75 1.81 1.94 2.01 1.99 2.03 2.11 2.15 2.17 2.07 1.97
1.08 0.89 0.82 0.82 0.99 1.00 1.19 1.75 2.22 2.10 1.91 1.02 0.34 0.45 0.63 0.54 0.52 0.56 0.54 0.51 0.53 0.57 0.58 0.64 0.69 0.77 0.82 0.80 0.75 0.80 0.94 1.19 1.43 1.53 1.54 1.62 1.76 1.81 1.78 1.83 1.96 2.00 1.96 1.86
1.17 1.04 0.75 0.85 1.15 1.23 1.15 1.50 1.73 1.39 0.90 0.49 0.33 0.46 0.56 0.47 0.46 0.45 0.40 0.39 0.44 0.51 0.50 0.54 0.59 0.65 0.67 0.67 0.69 0.73 0.83 0.94 1.06 1.17 1.26 1.36 1.47 1.56 1.53 1.53 1.64 1.72 1.70 1.70
0.98 0.81 0.51 0.61 0.76 0.92 1.12 1.17 1.01 1.21 0.82 0.56 0.42 0.43 0.45 0.34 0.34 0.35 0.34 0.34 0.38 0.40 0.39 0.41 0.47 0.49 0.48 0.51 0.58 0.64 0.67 0.75 0.85 0.93 1.02 1.14 1.19 1.31 1.38 1.40 1.47 1.56 1.57 1.53
0.95 0.98 0.58 0.63 0.88 1.00 1.03 0.99 1.19 1.79 1.40 0.81 0.44 0.39 0.47 0.39 0.36 0.38 0.36 0.34 0.34 0.31 0.32 0.35 0.41 0.44 0.44 0.43 0.42 0.46 0.55 0.68 0.76 0.77 0.85 0.97 1.04 1.08 1.17 1.26 1.31 1.35 1.32 1.30
0.84 1.18 0.84 0.84 1.10 1.06 1.05 1.26 1.39 1.47 1.20 1.04 0.71 0.57 0.49 0.40 0.38 0.39 0.39 0.34 0.32 0.30 0.32 0.32 0.34 0.38 0.45 0.43 0.38 0.38 0.45 0.56 0.65 0.67 0.72 0.78 0.87 0.93 0.97 1.01 1.06 1.11 1.12 1.12
0.82 1.32 1.06 0.73 0.64 0.70 0.89 1.02 1.25 1.67 1.28 0.97 0.83 0.66 0.44 0.36 0.35 0.36 0.36 0.35 0.34 0.34 0.35 0.32 0.30 0.32 0.42 0.45 0.42 0.41 0.44 0.49 0.56 0.61 0.66 0.72 0.74 0.79 0.87 0.92 0.90 0.91 0.95 0.98
1.10 1.59 1.46 1.05 0.91 0.92 1.05 0.93 0.97 1.35 1.65 1.30 1.03 0.70 0.42 0.32 0.30 0.31 0.32 0.34 0.36 0.37 0.37 0.36 0.32 0.31 0.37 0.44 0.44 0.42 0.45 0.48 0.51 0.58 0.61 0.66 0.69 0.69 0.74 0.82 0.84 0.84 0.87 0.93
1.36 1.60 1.33 1.12 1.06 1.08 1.02 0.82 0.93 1.64 2.06 1.23 0.71 0.49 0.35 0.33 0.37 0.36 0.34 0.34 0.38 0.40 0.39 0.39 0.42 0.38 0.37 0.41 0.41 0.38 0.42 0.45 0.47 0.53 0.57 0.59 0.65 0.67 0.67 0.70 0.75 0.79 0.80 0.85
1.12 1.46 0.99 0.65 0.52 0.70 0.75 0.74 0.86 1.24 1.27 1.21 0.71 0.45 0.40 0.41 0.46 0.44 0.39 0.34 0.33 0.36 0.37 0.37 0.39 0.42 0.41 0.39 0.40 0.37 0.38 0.40 0.42 0.48 0.53 0.55 0.60 0.64 0.67 0.68 0.71 0.76 0.77 0.81
0.91 1.21 0.98 0.71 0.44 0.54 0.63 0.61 0.64 0.76 0.82 0.83 0.62 0.57 0.47 0.44 0.41 0.39 0.37 0.33 0.33 0.34 0.36 0.36 0.33 0.35 0.36 0.40 0.41 0.41 0.40 0.38 0.41 0.44 0.48 0.51 0.55 0.58 0.63 0.67 0.69 0.71 0.76 0.82
0.82 1.07 1.24 0.88 0.50 0.63 0.78 0.71 0.70 0.71 0.71 0.72 0.76 0.68 0.54 0.49 0.45 0.42 0.39 0.35 0.34 0.31 0.29 0.31 0.30 0.32 0.33 0.35 0.37 0.39 0.39 0.37 0.39 0.43 0.45 0.48 0.53 0.57 0.60 0.66 0.72 0.79 0.84 0.93
0.57 0.92 1.37 1.02 0.71 0.92 0.74 0.57 0.58 0.62 0.65 0.68 0.66 0.56 0.51 0.49 0.46 0.44 0.40 0.34 0.31 0.29 0.26 0.25 0.25 0.25 0.25 0.27 0.30 0.34 0.35 0.36 0.38 0.42 0.49 0.52 0.55 0.64 0.70 0.72 0.79 0.88 0.95 1.03
0.33 0.78 1.32 1.17 0.90 0.62 0.42 0.40 0.53 0.62 0.66 0.63 0.51 0.41 0.38 0.38 0.39 0.40 0.35 0.30 0.29 0.28 0.29 0.28 0.26 0.25 0.25 0.26 0.29 0.34 0.37 0.38 0.38 0.41 0.48 0.54 0.57 0.69 0.77 0.77 0.81 0.89 0.95 1.01
0.31 0.64 1.29 1.23 1.05 0.60 0.42 0.27 0.29 0.48 0.71 0.51 0.43 0.42 0.41 0.41 0.48 0.42 0.33 0.29 0.30 0.28 0.27 0.30 0.31 0.28 0.30 0.32 0.33 0.38 0.43 0.50 0.51 0.51 0.55 0.62 0.70 0.81 0.85 0.84 0.84 0.83 0.84 0.85
0.49 0.89 1.19 1.04 0.98 0.54 0.37 0.24 0.25 0.64 0.78 0.41 0.39 0.41 0.44 0.47 0.48 0.40 0.30 0.27 0.31 0.32 0.30 0.31 0.35 0.36 0.38 0.40 0.40 0.42 0.47 0.59 0.65 0.67 0.67 0.71 0.77 0.81 0.83 0.81 0.77 0.74 0.70 0.70
0.48 0.67 0.74 0.78 1.01 0.75 0.39 0.31 0.56 0.71 0.43 0.36 0.37 0.41 0.44 0.42 0.35 0.30 0.30 0.29 0.28 0.29 0.30 0.33 0.40 0.43 0.43 0.48 0.53 0.53 0.55 0.61 0.66 0.70 0.69 0.69 0.69 0.70 0.74 0.75 0.73 0.69 0.67 0.66
0.51 0.64 0.67 0.70 0.79 0.68 0.52 0.55 0.56 0.46 0.41 0.36 0.37 0.38 0.39 0.38 0.36 0.30 0.27 0.27 0.29 0.31 0.32 0.36 0.44 0.49 0.51 0.51 0.55 0.58 0.55 0.55 0.59 0.63 0.65 0.62 0.58 0.58 0.60 0.63 0.66 0.66 0.65 0.64
0.47 0.39 0.49 0.59 0.60 0.51 0.47 0.42 0.38 0.37 0.40 0.36 0.33 0.35 0.37 0.39 0.36 0.32 0.29 0.29 0.28 0.29 0.31 0.34 0.39 0.43 0.46 0.47 0.48 0.49 0.46 0.45 0.47 0.51 0.56 0.57 0.53 0.52 0.52 0.52 0.58 0.61 0.62 0.62
0.50 0.43 0.46 0.52 0.48 0.39 0.38 0.38 0.37 0.34 0.31 0.28 0.27 0.27 0.32 0.34 0.33 0.32 0.33 0.32 0.31 0.30 0.31 0.32 0.36 0.41 0.43 0.42 0.43 0.42 0.41 0.41 0.44 0.44 0.47 0.49 0.51 0.52 0.53 0.55 0.58 0.62 0.63 0.69
0.41 0.45 0.53 0.59 0.47 0.46 0.47 0.40 0.35 0.34 0.33 0.31 0.28 0.27 0.26 0.28 0.31 0.29 0.31 0.30 0.30 0.34 0.33 0.32 0.33 0.38 0.44 0.43 0.41 0.40 0.40 0.41 0.45 0.47 0.47 0.48 0.51 0.53 0.54 0.54 0.59 0.65 0.67 0.72

GEFSCGP_prec_meanprecacc_264.txt.gz
Total_Precipitation_Accumulation
2.01 2.04 1.56 0.97 0.75 0.61 0.56 0.58 0.51 0.44 0.41 0.56 0.62 0.59 0.61 0.58 0.56 0.58 0.60 0.60 0.71 0.86 0.99 1.18 1.38 1.75 2.02 2.33 2.64 2.70 2.90 3.06 3.22 3.33 3.28 3.08 2.83 2.69 2.59 2.52 2.47 2.29 2.11 1.99
1.92 1.54 0.85 0.68 0.68 0.68 0.69 0.72 0.57 0.47 0.42 0.53 0.57 0.54 0.58 0.64 0.61 0.54 0.51 0.53 0.59 0.73 0.86 0.98 1.16 1.47 1.69 1.89 2.13 2.30 2.45 2.65 2.86 2.98 2.97 2.98 2.98 2.81 2.61 2.54 2.51 2.47 2.39 2.24
1.36 0.90 0.62 0.72 0.82 0.89 0.80 0.74 0.61 0.54 0.49 0.55 0.59 0.61 0.55 0.57 0.58 0.56 0.54 0.53 0.59 0.72 0.74 0.82 0.95 1.21 1.40 1.54 1.75 1.94 2.10 2.22 2.32 2.69 2.97 3.00 3.07 2.99 2.66 2.41 2.26 2.35 2.46 2.46
1.13 0.68 0.70 0.86 0.82 0.85 0.89 0.56 0.55 0.59 0.79 0.86 0.64 0.81 0.59 0.52 0.52 0.56 0.57 0.58 0.66 0.73 0.77 0.81 0.88 1.04 1.15 1.23 1.43 1.66 1.89 2.02 2.04 2.32 2.60 2.62 2.48 2.44 2.30 2.21 2.25 2.31 2.37 2.45
1.19 0.77 0.78 0.94 0.70 0.71 0.74 0.54 0.64 0.72 0.87 0.93 0.62 0.74 0.67 0.50 0.58 0.60 0.60 0.64 0.70 0.67 0.70 0.80 0.84 0.89 0.98 1.04 1.14 1.33 1.66 1.85 1.88 1.94 2.17 2.38 2.41 2.34 2.35 2.33 2.31 2.26 2.18 2.22
0.89 0.79 0.88 0.81 0.60 0.68 0.77 0.88 1.00 1.04 1.34 1.37 0.58 0.62 0.67 0.58 0.62 0.59 0.54 0.60 0.63 0.61 0.66 0.72 0.73 0.78 0.90 0.92 0.94 1.08 1.27 1.62 1.79 1.82 1.89 2.04 2.12 2.09 2.14 2.22 2.24 2.25 2.16 2.04
1.08 0.89 0.82 0.82 0.99 1.00 1.22 1.78 2.25 2.15 1.96 1.06 0.36 0.47 0.66 0.58 0.54 0.57 0.54 0.52 0.55 0.60 0.61 0.66 0.71 0.80 0.85 0.85 0.83 0.89 1.00 1.27 1.54 1.64 1.63 1.70 1.85 1.90 1.88 1.93 2.06 2.09 2.05 1.94
1.17 1.05 0.75 0.85 1.16 1.24 1.18 1.54 1.77 1.43 0.94 0.51 0.34 0.48 0.60 0.49 0.47 0.45 0.40 0.39 0.46 0.53 0.53 0.58 0.62 0.68 0.70 0.70 0.75 0.82 0.90 1.00 1.16 1.30 1.39 1.46 1.56 1.65 1.62 1.61 1.75 1.82 1.78 1.77
0.99 0.82 0.51 0.62 0.76 0.94 1.14 1.21 1.04 1.25 0.86 0.59 0.44 0.46 0.48 0.36 0.35 0.36 0.35 0.35 0.39 0.41 0.41 0.44 0.50 0.53 0.54 0.55 0.63 0.71 0.75 0.81 0.90 1.02 1.16 1.28 1.30 1.40 1.47 1.48 1.55 1.68 1.66 1.61
0.96 0.99 0.58 0.63 0.88 1.00 1.04 1.02 1.22 1.82 1.45 0.84 0.47 0.42 0.50 0.42 0.38 0.39 0.38 0.36 0.35 0.32 0.34 0.37 0.43 0.48 0.50 0.50 0.48 0.51 0.62 0.74 0.81 0.83 0.95 1.10 1.17 1.18 1.26 1.34 1.38 1.43 1.42 1.38
0.84 1.19 0.85 0.84 1.11 1.07 1.06 1.28 1.42 1.49 1.24 1.08 0.74 0.61 0.52 0.44 0.41 0.41 0.41 0.36 0.34 0.31 0.33 0.34 0.36 0.41 0.50 0.51 0.46 0.43 0.51 0.63 0.69 0.72 0.78 0.88 0.99 1.05 1.09 1.12 1.16 1.19 1.20 1.20
0.82 1.33 1.06 0.74 0.65 0.70 0.90 1.03 1.26 1.70 1.31 1.00 0.85 0.69 0.48 0.39 0.38 0.39 0.39 0.37 0.37 0.36 0.37 0.34 0.32 0.35 0.45 0.51 0.51 0.48 0.49 0.55 0.62 0.65 0.70 0.79 0.83 0.89 1.00 1.06 1.02 1.01 1.04 1.06
1.12 1.60 1.47 1.05 0.92 0.92 1.05 0.93 0.98 1.37 1.68 1.33 1.06 0.72 0.44 0.34 0.32 0.33 0.36 0.38 0.39 0.39 0.40 0.37 0.34 0.33 0.39 0.48 0.53 0.50 0.51 0.53 0.57 0.62 0.65 0.72 0.75 0.76 0.83 0.93 0.97 0.96 0.98 1.03
1.38 1.62 1.34 1.13 1.07 1.09 1.03 0.82 0.94 1.66 2.09 1.25 0.72 0.51 0.37 0.34 0.39 0.38 0.36 0.37 0.41 0.43 0.43 0.42 0.44 0.40 0.39 0.43 0.48 0.47 0.51 0.52 0.53 0.59 0.62 0.64 0.72 0.72 0.73 0.78 0.85 0.90 0.91 0.95
1.13 1.47 0.99 0.65 0.53 0.71 0.76 0.75 0.87 1.25 1.29 1.23 0.73 0.47 0.42 0.43 0.48 0.46 0.41 0.36 0.35 0.39 0.40 0.40 0.42 0.45 0.43 0.42 0.45 0.44 0.47 0.51 0.49 0.54 0.58 0.60 0.65 0.68 0.72 0.74 0.78 0.84 0.87 0.90
0.91 1.21 0.99 0.71 0.45 0.54 0.63 0.62 0.65 0.77 0.84 0.85 0.63 0.59 0.49 0.46 0.43 0.41 0.39 0.35 0.35 0.36 0.39 0.38 0.35 0.39 0.39 0.42 0.45 0.47 0.47 0.49 0.51 0.51 0.52 0.56 0.60 0.62 0.67 0.73 0.75 0.77 0.83 0.89
0.83 1.08 1.25 0.88 0.50 0.63 0.79 0.72 0.71 0.73 0.73 0.74 0.77 0.70 0.56 0.51 0.47 0.45 0.42 0.38 0.37 0.33 0.32 0.33 0.33 0.35 0.36 0.38 0.41 0.44 0.46 0.47 0.50 0.53 0.52 0.54 0.58 0.61 0.64 0.71 0.79 0.86 0.90 0.99
0.58 0.93 1.38 1.03 0.72 0.92 0.75 0.58 0.60 0.63 0.66 0.70 0.68 0.58 0.53 0.50 0.48 0.46 0.42 0.37 0.34 0.31 0.29 0.27 0.28 0.27 0.28 0.30 0.33 0.38 0.41 0.45 0.48 0.53 0.58 0.60 0.61 0.67 0.73 0.77 0.84 0.93 1.01 1.09
0.33 0.78 1.33 1.18 0.90 0.63 0.43 0.40 0.54 0.63 0.67 0.64 0.52 0.42 0.40 0.39 0.40 0.41 0.37 0.32 0.31 0.30 0.32 0.30 0.29 0.28 0.28 0.30 0.33 0.39 0.44 0.46 0.46 0.51 0.58 0.63 0.65 0.74 0.81 0.82 0.87 0.94 0.99 1.05
0.31 0.65 1.30 1.24 1.06 0.61 0.43 0.27 0.30 0.48 0.72 0.52 0.44 0.43 0.42 0.42 0.49 0.44 0.34 0.31 0.31 0.29 0.29 0.33 0.34 0.31 0.33 0.35 0.37 0.43 0.51 0.59 0.61 0.60 0.64 0.71 0.79 0.88 0.91 0.88 0.88 0.87 0.88 0.89
0.50 0.90 1.20 1.04 0.99 0.54 0.38 0.24 0.25 0.65 0.79 0.42 0.40 0.43 0.45 0.49 0.50 0.42 0.32 0.29 0.32 0.34 0.32 0.33 0.37 0.38 0.41 0.43 0.44 0.46 0.51 0.65 0.72 0.74 0.75 0.77 0.84 0.88 0.90 0.86 0.82 0.79 0.75 0.75
0.48 0.67 0.75 0.79 1.02 0.76 0.40 0.31 0.57 0.72 0.44 0.37 0.38 0.42 0.45 0.44 0.36 0.31 0.32 0.31 0.30 0.31 0.31 0.35 0.41 0.45 0.45 0.50 0.56 0.56 0.58 0.65 0.71 0.75 0.76 0.75 0.75 0.76 0.80 0.81 0.78 0.74 0.73 0.72
0.52 0.64 0.67 0.71 0.80 0.69 0.53 0.56 0.58 0.48 0.42 0.37 0.38 0.40 0.40 0.39 0.37 0.32 0.29 0.29 0.31 0.33 0.33 0.38 0.46 0.51 0.53 0.53 0.58 0.62 0.59 0.58 0.62 0.67 0.70 0.68 0.65 0.64 0.65 0.69 0.72 0.73 0.72 0.71
0.47 0.39 0.49 0.59 0.61 0.52 0.48 0.43 0.39 0.38 0.41 0.37 0.35 0.36 0.39 0.40 0.37 0.34 0.31 0.31 0.29 0.30 0.33 0.36 0.41 0.46 0.48 0.49 0.51 0.54 0.50 0.48 0.50 0.54 0.59 0.62 0.60 0.58 0.57 0.57 0.64 0.68 0.70 0.68
0.50 0.43 0.47 0.53 0.48 0.39 0.38 0.38 0.38 0.35 0.32 0.29 0.27 0.28 0.33 0.35 0.34 0.34 0.35 0.33 0.32 0.32 0.33 0.35 0.38 0.43 0.46 0.45 0.46 0.46 0.45 0.44 0.46 0.47 0.50 0.53 0.57 0.59 0.60 0.60 0.64 0.69 0.70 0.76
0.42 0.46 0.53 0.59 0.47 0.47 0.47 0.40 0.36 0.34 0.33 0.31 0.29 0.27 0.27 0.29 0.33 0.31 0.32 0.32 0.32 0.36 0.35 0.35 0.36 0.40 0.46 0.46 0.45 0.45 0.43 0.44 0.47 0.49 0.49 0.51 0.57 0.60 0.61 0.61 0.64 0.71 0.74 0.79

GEFSCGP_prec_meanprecacc_270.txt.gz
Total_Precipitation_Accumulation
2.02 2.05 1.57 0.98 0.75 0.62 0.58 0.61 0.54 0.47 0.44 0.60 0.66 0.62 0.63 0.61 0.58 0.61 0.61 0.62 0.72 0.88 1.03 1.23 1.45 1.84 2.10 2.40 2.72 2.79 2.98 3.14 3.29 3.42 3.42 3.21 2.93 2.75 2.63 2.56 2.52 2.36 2.19 2.09
1.93 1.55 0.87 0.69 0.70 0.71 0.71 0.76 0.60 0.49 0.44 0.56 0.60 0.56 0.60 0.67 0.64 0.57 0.54 0.55 0.61 0.75 0.88 1.02 1.23 1.57 1.79 1.98 2.22 2.41 2.55 2.74 2.93 3.04 3.07 3.15 3.13 2.90 2.67 2.60 2.56 2.55 2.49 2.34
1.37 0.91 0.64 0.74 0.83 0.90 0.81 0.76 0.62 0.57 0.52 0.59 0.62 0.63 0.57 0.59 0.61 0.60 0.58 0.56 0.61 0.74 0.76 0.85 1.01 1.32 1.53 1.67 1.85 2.05 2.24 2.33 2.41 2.76 3.05 3.11 3.27 3.17 2.78 2.50 2.34 2.42 2.55 2.58
1.13 0.68 0.70 0.86 0.82 0.85 0.89 0.57 0.56 0.61 0.84 0.92 0.69 0.85 0.60 0.53 0.54 0.59 0.61 0.63 0.69 0.75 0.79 0.85 0.93 1.11 1.26 1.35 1.56 1.78 2.04 2.20 2.17 2.41 2.68 2.70 2.63 2.66 2.47 2.34 2.36 2.42 2.47 2.56
1.19 0.77 0.79 0.94 0.70 0.72 0.75 0.54 0.65 0.73 0.90 1.00 0.68 0.79 0.69 0.51 0.59 0.62 0.62 0.68 0.74 0.70 0.72 0.82 0.88 0.94 1.07 1.13 1.25 1.45 1.80 2.05 2.09 2.09 2.27 2.47 2.52 2.51 2.56 2.50 2.46 2.39 2.29 2.35
0.89 0.79 0.88 0.82 0.61 0.69 0.77 0.88 1.00 1.05 1.38 1.43 0.62 0.67 0.71 0.61 0.64 0.60 0.55 0.62 0.67 0.64 0.68 0.75 0.77 0.83 0.98 1.01 1.01 1.15 1.37 1.75 2.00 2.01 2.03 2.15 2.23 2.22 2.33 2.43 2.40 2.40 2.29 2.18
1.08 0.89 0.82 0.82 1.00 1.01 1.22 1.80 2.27 2.17 2.00 1.11 0.38 0.50 0.71 0.62 0.56 0.58 0.55 0.54 0.58 0.64 0.65 0.68 0.74 0.84 0.92 0.94 0.90 0.94 1.06 1.35 1.68 1.82 1.78 1.83 1.96 2.01 2.01 2.15 2.26 2.26 2.19 2.08
1.17 1.05 0.75 0.86 1.17 1.25 1.19 1.56 1.80 1.46 0.96 0.53 0.36 0.52 0.66 0.54 0.49 0.47 0.42 0.41 0.48 0.56 0.57 0.61 0.64 0.71 0.75 0.78 0.81 0.88 0.95 1.06 1.25 1.43 1.55 1.60 1.69 1.77 1.72 1.75 1.96 2.01 1.93 1.90
0.99 0.82 0.51 0.62 0.77 0.94 1.15 1.22 1.06 1.28 0.87 0.61 0.47 0.49 0.51 0.38 0.36 0.38 0.36 0.37 0.41 0.44 0.44 0.48 0.53 0.57 0.58 0.62 0.69 0.76 0.80 0.87 0.99 1.10 1.28 1.44 1.44 1.52 1.58 1.59 1.69 1.87 1.86 1.76
0.97 0.99 0.58 0.63 0.89 1.00 1.05 1.03 1.24 1.84 1.47 0.86 0.49 0.44 0.54 0.45 0.40 0.41 0.40 0.37 0.36 0.35 0.37 0.40 0.47 0.52 0.54 0.56 0.52 0.55 0.65 0.80 0.89 0.89 1.02 1.22 1.33 1.35 1.39 1.47 1.52 1.58 1.61 1.58
0.85 1.19 0.85 0.84 1.11 1.07 1.06 1.29 1.43 1.51 1.26 1.10 0.76 0.63 0.56 0.48 0.43 0.43 0.42 0.38 0.35 0.33 0.36 0.37 0.39 0.45 0.54 0.57 0.50 0.46 0.55 0.68 0.76 0.78 0.83 0.95 1.11 1.22 1.26 1.27 1.31 1.35 1.37 1.39
0.83 1.34 1.07 0.74 0.65 0.70 0.90 1.04 1.27 1.71 1.33 1.02 0.87 0.71 0.51 0.43 0.40 0.41 0.41 0.40 0.38 0.38 0.38 0.36 0.35 0.38 0.49 0.57 0.57 0.51 0.53 0.59 0.68 0.71 0.75 0.84 0.90 1.03 1.15 1.21 1.18 1.15 1.19 1.22
1.13 1.61 1.48 1.05 0.92 0.92 1.05 0.93 0.99 1.39 1.70 1.35 1.07 0.74 0.46 0.36 0.34 0.35 0.39 0.41 0.41 0.41 0.42 0.39 0.37 0.36 0.44 0.54 0.60 0.55 0.55 0.57 0.61 0.69 0.70 0.77 0.81 0.86 0.94 1.07 1.12 1.11 1.11 1.16
1.39 1.63 1.35 1.14 1.08 1.10 1.03 0.83 0.94 1.67 2.11 1.27 0.74 0.52 0.38 0.36 0.41 0.40 0.39 0.40 0.45 0.46 0.45 0.45 0.47 0.44 0.43 0.49 0.56 0.54 0.56 0.56 0.56 0.64 0.69 0.69 0.76 0.79 0.81 0.88 0.97 1.02 1.03 1.07
1.13 1.48 0.99 0.66 0.53 0.71 0.76 0.75 0.87 1.26 1.30 1.23 0.74 0.48 0.43 0.44 0.50 0.48 0.43 0.39 0.40 0.43 0.43 0.43 0.45 0.48 0.47 0.46 0.52 0.53 0.53 0.57 0.54 0.58 0.66 0.68 0.71 0.74 0.78 0.82 0.88 0.95 0.97 1.01
0.92 1.22 0.99 0.72 0.45 0.54 0.63 0.62 0.66 0.77 0.84 0.85 0.64 0.60 0.51 0.47 0.44 0.43 0.41 0.37 0.38 0.40 0.43 0.41 0.38 0.42 0.42 0.46 0.50 0.54 0.54 0.56 0.57 0.56 0.59 0.64 0.69 0.70 0.74 0.79 0.83 0.86 0.93 0.99
0.84 1.09 1.26 0.89 0.50 0.64 0.79 0.72 0.72 0.73 0.74 0.75 0.78 0.71 0.57 0.52 0.48 0.46 0.43 0.39 0.39 0.36 0.36 0.36 0.36 0.38 0.39 0.41 0.45 0.50 0.52 0.52 0.56 0.58 0.58 0.60 0.66 0.71 0.73 0.78 0.85 0.93 0.98 1.08
0.58 0.94 1.39 1.04 0.72 0.92 0.76 0.58 0.60 0.64 0.67 0.70 0.68 0.59 0.54 0.51 0.49 0.47 0.43 0.38 0.35 0.33 0.32 0.31 0.31 0.31 0.31 0.33 0.37 0.43 0.46 0.49 0.52 0.57 0.63 0.66 0.67 0.75 0.82 0.85 0.91 1.00 1.07 1.16
0.34 0.79 1.34 1.19 0.91 0.63 0.43 0.41 0.55 0.63 0.67 0.65 0.53 0.43 0.40 0.40 0.40 0.42 0.38 0.34 0.34 0.33 0.35 0.33 0.32 0.31 0.31 0.33 0.36 0.43 0.49 0.51 0.51 0.55 0.62 0.68 0.70 0.80 0.88 0.89 0.93 1.00 1.05 1.11
0.32 0.65 1.31 1.25 1.07 0.61 0.43 0.27 0.30 0.49 0.72 0.53 0.45 0.44 0.43 0.43 0.50 0.45 0.35 0.32 0.33 0.31 0.31 0.35 0.37 0.34 0.36 0.38 0.40 0.46 0.55 0.64 0.67 0.66 0.69 0.76 0.84 0.94 0.97 0.94 0.94 0.93 0.93 0.93
0.51 0.91 1.21 1.05 1.00 0.55 0.38 0.24 0.25 0.65 0.79 0.43 0.41 0.44 0.46 0.50 0.51 0.43 0.33 0.30 0.34 0.36 0.34 0.35 0.39 0.41 0.44 0.45 0.46 0.48 0.54 0.68 0.76 0.79 0.80 0.82 0.90 0.95 0.96 0.92 0.87 0.84 0.80 0.79
0.49 0.67 0.75 0.79 1.03 0.76 0.40 0.31 0.57 0.73 0.45 0.38 0.39 0.43 0.46 0.45 0.38 0.32 0.33 0.33 0.31 0.32 0.33 0.37 0.43 0.46 0.48 0.53 0.58 0.58 0.60 0.67 0.73 0.77 0.78 0.78 0.80 0.83 0.87 0.88 0.83 0.79 0.77 0.76
0.52 0.65 0.67 0.71 0.81 0.69 0.53 0.57 0.59 0.49 0.43 0.38 0.39 0.40 0.41 0.40 0.38 0.33 0.31 0.31 0.32 0.35 0.35 0.40 0.49 0.53 0.55 0.55 0.60 0.64 0.60 0.60 0.64 0.69 0.72 0.71 0.69 0.69 0.72 0.76 0.77 0.78 0.77 0.75
0.47 0.39 0.49 0.59 0.61 0.52 0.49 0.43 0.39 0.39 0.42 0.38 0.35 0.37 0.39 0.41 0.38 0.35 0.33 0.32 0.31 0.32 0.35 0.39 0.44 0.48 0.50 0.51 0.53 0.56 0.52 0.50 0.51 0.56 0.62 0.65 0.65 0.64 0.64 0.63 0.69 0.74 0.75 0.74
0.51 0.44 0.47 0.53 0.48 0.39 0.38 0.39 0.39 0.36 0.32 0.30 0.28 0.28 0.34 0.36 0.35 0.35 0.36 0.35 0.34 0.34 0.36 0.38 0.43 0.47 0.48 0.47 0.48 0.49 0.47 0.46 0.48 0.48 0.52 0.56 0.61 0.64 0.66 0.66 0.69 0.75 0.76 0.82
0.42 0.46 0.54 0.59 0.47 0.47 0.48 0.41 0.36 0.34 0.33 0.32 0.29 0.28 0.27 0.30 0.34 0.32 0.34 0.33 0.34 0.38 0.37 0.38 0.39 0.44 0.49 0.49 0.47 0.47 0.46 0.46 0.49 0.51 0.51 0.55 0.60 0.63 0.65 0.66 0.69 0.76 0.79 0.85

GEFSCGP_prec_meanprecacc_276.txt.gz
Total_Precipitation_Accumulation
2.03 2.05 1.58 0.98 0.76 0.62 0.59 0.62 0.56 0.48 0.45 0.62 0.68 0.64 0.66 0.62 0.60 0.63 0.64 0.65 0.77 0.93 1.07 1.27 1.49 1.88 2.13 2.44 2.77 2.88 3.10 3.25 3.38 3.51 3.50 3.30 3.02 2.81 2.68 2.62 2.57 2.40 2.23 2.15
1.93 1.56 0.88 0.70 0.70 0.71 0.72 0.77 0.61 0.50 0.46 0.58 0.63 0.59 0.64 0.69 0.67 0.59 0.57 0.58 0.65 0.80 0.94 1.08 1.29 1.63 1.84 2.03 2.27 2.50 2.68 2.87 3.02 3.11 3.14 3.24 3.25 3.00 2.74 2.66 2.62 2.60 2.53 2.38
1.38 0.91 0.64 0.74 0.84 0.91 0.82 0.76 0.64 0.58 0.54 0.61 0.65 0.67 0.60 0.63 0.64 0.63 0.61 0.59 0.65 0.79 0.82 0.92 1.09 1.41 1.60 1.73 1.91 2.13 2.36 2.47 2.54 2.84 3.12 3.19 3.39 3.30 2.88 2.57 2.41 2.50 2.62 2.65
1.14 0.68 0.70 0.87 0.83 0.86 0.90 0.57 0.57 0.62 0.86 0.95 0.72 0.89 0.63 0.57 0.57 0.61 0.64 0.67 0.73 0.79 0.84 0.91 1.00 1.20 1.37 1.45 1.64 1.87 2.16 2.34 2.34 2.53 2.77 2.78 2.73 2.80 2.62 2.45 2.45 2.50 2.56 2.65
1.20 0.77 0.79 0.94 0.71 0.73 0.75 0.55 0.66 0.74 0.92 1.02 0.70 0.83 0.73 0.53 0.61 0.64 0.65 0.72 0.78 0.74 0.77 0.88 0.94 1.01 1.15 1.24 1.34 1.55 1.91 2.19 2.27 2.27 2.39 2.57 2.62 2.63 2.70 2.64 2.58 2.48 2.38 2.43
0.89 0.79 0.88 0.82 0.61 0.69 0.77 0.88 1.01 1.06 1.40 1.45 0.65 0.71 0.75 0.64 0.66 0.62 0.56 0.64 0.71 0.68 0.73 0.80 0.82 0.88 1.05 1.08 1.10 1.24 1.46 1.87 2.18 2.24 2.24 2.28 2.33 2.34 2.45 2.58 2.55 2.51 2.38 2.25
1.08 0.89 0.82 0.83 1.00 1.01 1.23 1.80 2.28 2.18 2.03 1.13 0.40 0.55 0.79 0.68 0.58 0.60 0.57 0.55 0.61 0.67 0.69 0.72 0.78 0.89 0.97 1.02 0.98 1.04 1.15 1.44 1.80 2.00 2.02 2.03 2.09 2.13 2.14 2.28 2.43 2.40 2.29 2.15
1.17 1.05 0.75 0.86 1.17 1.26 1.19 1.56 1.81 1.47 0.97 0.54 0.37 0.56 0.74 0.64 0.53 0.49 0.43 0.42 0.50 0.59 0.61 0.64 0.67 0.74 0.80 0.84 0.88 0.96 1.02 1.14 1.34 1.54 1.71 1.81 1.88 1.91 1.84 1.88 2.10 2.19 2.07 1.99
0.99 0.82 0.51 0.62 0.77 0.95 1.16 1.23 1.07 1.29 0.88 0.61 0.48 0.52 0.55 0.44 0.43 0.43 0.39 0.38 0.43 0.47 0.48 0.51 0.55 0.59 0.61 0.66 0.73 0.81 0.85 0.93 1.05 1.17 1.38 1.59 1.64 1.70 1.73 1.73 1.83 2.04 2.04 1.89
0.97 0.99 0.58 0.63 0.89 1.01 1.06 1.04 1.24 1.85 1.48 0.87 0.50 0.45 0.57 0.50 0.45 0.47 0.44 0.40 0.38 0.38 0.40 0.43 0.49 0.54 0.57 0.59 0.55 0.58 0.69 0.83 0.94 0.96 1.10 1.32 1.47 1.51 1.55 1.62 1.66 1.73 1.80 1.79
0.85 1.19 0.85 0.84 1.12 1.07 1.07 1.29 1.44 1.52 1.27 1.12 0.77 0.64 0.60 0.52 0.48 0.47 0.46 0.41 0.38 0.36 0.39 0.41 0.42 0.48 0.56 0.60 0.53 0.49 0.57 0.70 0.80 0.83 0.90 1.04 1.19 1.32 1.38 1.39 1.42 1.47 1.52 1.60
0.83 1.34 1.07 0.74 0.65 0.71 0.90 1.04 1.28 1.72 1.34 1.03 0.88 0.72 0.53 0.45 0.43 0.44 0.46 0.44 0.42 0.41 0.42 0.40 0.38 0.41 0.52 0.61 0.60 0.54 0.55 0.61 0.70 0.75 0.80 0.91 0.98 1.09 1.23 1.31 1.27 1.26 1.30 1.35
1.14 1.62 1.48 1.05 0.92 0.92 1.05 0.94 0.99 1.40 1.72 1.36 1.08 0.74 0.47 0.37 0.35 0.38 0.42 0.45 0.45 0.45 0.46 0.43 0.41 0.41 0.47 0.58 0.63 0.59 0.58 0.59 0.63 0.71 0.72 0.82 0.89 0.93 0.99 1.11 1.18 1.19 1.21 1.27
1.40 1.64 1.36 1.14 1.08 1.10 1.03 0.83 0.95 1.68 2.13 1.28 0.75 0.52 0.38 0.36 0.41 0.41 0.40 0.43 0.48 0.50 0.50 0.49 0.51 0.49 0.49 0.54 0.60 0.59 0.61 0.59 0.57 0.66 0.71 0.71 0.81 0.87 0.89 0.92 1.00 1.07 1.10 1.15
1.14 1.49 1.00 0.66 0.53 0.71 0.77 0.75 0.87 1.27 1.31 1.25 0.74 0.48 0.44 0.45 0.51 0.50 0.45 0.41 0.42 0.45 0.46 0.47 0.49 0.53 0.52 0.51 0.57 0.59 0.60 0.62 0.57 0.60 0.68 0.70 0.73 0.78 0.86 0.89 0.94 1.00 1.03 1.07
0.92 1.23 1.00 0.72 0.45 0.54 0.63 0.62 0.66 0.77 0.84 0.86 0.64 0.60 0.51 0.48 0.45 0.43 0.42 0.39 0.40 0.42 0.45 0.44 0.42 0.46 0.47 0.51 0.57 0.62 0.63 0.63 0.61 0.58 0.61 0.67 0.71 0.74 0.78 0.85 0.91 0.94 1.00 1.06
0.85 1.10 1.27 0.90 0.51 0.64 0.79 0.72 0.72 0.74 0.74 0.75 0.79 0.71 0.57 0.52 0.49 0.47 0.44 0.41 0.40 0.38 0.38 0.39 0.39 0.42 0.43 0.46 0.52 0.58 0.62 0.62 0.63 0.62 0.61 0.64 0.69 0.75 0.78 0.82 0.90 1.00 1.06 1.17
0.59 0.95 1.41 1.05 0.73 0.93 0.76 0.58 0.60 0.64 0.67 0.71 0.69 0.59 0.54 0.52 0.50 0.49 0.44 0.40 0.37 0.35 0.34 0.33 0.34 0.34 0.34 0.37 0.42 0.50 0.57 0.61 0.62 0.64 0.68 0.70 0.71 0.79 0.87 0.89 0.94 1.04 1.12 1.22
0.34 0.80 1.36 1.20 0.92 0.63 0.43 0.41 0.55 0.63 0.67 0.65 0.53 0.43 0.41 0.41 0.41 0.43 0.39 0.36 0.35 0.35 0.37 0.36 0.35 0.35 0.34 0.36 0.40 0.48 0.57 0.61 0.62 0.64 0.68 0.73 0.76 0.86 0.95 0.95 0.97 1.03 1.08 1.15
0.32 0.66 1.32 1.26 1.08 0.62 0.43 0.27 0.31 0.49 0.72 0.53 0.46 0.44 0.44 0.43 0.51 0.46 0.37 0.33 0.35 0.33 0.33 0.38 0.40 0.37 0.39 0.41 0.43 0.49 0.59 0.71 0.75 0.75 0.76 0.81 0.90 1.01 1.04 1.02 1.00 0.97 0.97 0.97
0.51 0.92 1.22 1.06 1.00 0.55 0.39 0.24 0.25 0.66 0.80 0.44 0.41 0.44 0.47 0.51 0.52 0.45 0.35 0.32 0.35 0.37 0.36 0.37 0.41 0.44 0.47 0.48 0.49 0.52 0.58 0.73 0.81 0.85 0.87 0.89 0.96 1.02 1.03 1.00 0.94 0.90 0.85 0.84
0.49 0.68 0.76 0.80 1.04 0.76 0.40 0.32 0.58 0.74 0.46 0.39 0.40 0.44 0.47 0.46 0.39 0.33 0.34 0.34 0.33 0.34 0.34 0.39 0.46 0.49 0.50 0.55 0.61 0.61 0.64 0.71 0.76 0.81 0.83 0.83 0.85 0.89 0.93 0.95 0.91 0.86 0.84 0.83
0.52 0.65 0.68 0.72 0.81 0.69 0.53 0.57 0.59 0.49 0.44 0.38 0.40 0.41 0.41 0.41 0.39 0.34 0.31 0.31 0.33 0.36 0.36 0.42 0.51 0.56 0.57 0.58 0.62 0.67 0.64 0.63 0.66 0.72 0.75 0.74 0.72 0.74 0.77 0.81 0.84 0.86 0.84 0.82
0.47 0.40 0.50 0.60 0.61 0.52 0.49 0.44 0.40 0.39 0.42 0.38 0.36 0.38 0.40 0.42 0.39 0.36 0.34 0.33 0.32 0.33 0.36 0.41 0.46 0.51 0.53 0.53 0.55 0.58 0.55 0.52 0.53 0.58 0.64 0.67 0.68 0.68 0.67 0.68 0.75 0.81 0.83 0.81
0.51 0.45 0.48 0.54 0.49 0.40 0.39 0.39 0.39 0.37 0.33 0.30 0.28 0.29 0.34 0.37 0.36 0.36 0.37 0.36 0.35 0.35 0.37 0.40 0.45 0.50 0.51 0.49 0.50 0.50 0.49 0.47 0.49 0.50 0.53 0.57 0.63 0.67 0.69 0.69 0.74 0.81 0.82 0.89
0.43 0.47 0.55 0.61 0.48 0.48 0.49 0.42 0.37 0.35 0.34 0.33 0.30 0.29 0.28 0.31 0.35 0.33 0.35 0.34 0.35 0.39 0.39 0.39 0.41 0.46 0.51 0.50 0.49 0.49 0.48 0.47 0.51 0.52 0.53 0.56 0.62 0.66 0.68 0.69 0.73 0.81 0.84 0.90

GEFSCGP_prec_meanprecacc_282.txt.gz
Total_Precipitation_Accumulation
2.03 2.06 1.59 0.99 0.77 0.63 0.59 0.63 0.57 0.49 0.46 0.64 0.69 0.65 0.67 0.64 0.61 0.64 0.65 0.67 0.79 0.96 1.10 1.31 1.53 1.92 2.17 2.48 2.81 2.93 3.17 3.35 3.47 3.57 3.55 3.36 3.08 2.87 2.73 2.66 2.62 2.46 2.29 2.23
1.94 1.56 0.88 0.70 0.71 0.72 0.73 0.78 0.63 0.52 0.47 0.61 0.65 0.60 0.65 0.71 0.68 0.60 0.58 0.60 0.67 0.83 0.96 1.11 1.33 1.69 1.89 2.08 2.32 2.55 2.76 2.98 3.14 3.19 3.20 3.28 3.29 3.04 2.79 2.71 2.68 2.67 2.59 2.45
1.39 0.92 0.65 0.75 0.85 0.92 0.83 0.78 0.66 0.61 0.56 0.65 0.67 0.69 0.62 0.65 0.66 0.64 0.62 0.61 0.67 0.81 0.85 0.95 1.12 1.47 1.70 1.82 2.00 2.21 2.45 2.59 2.67 2.96 3.20 3.26 3.45 3.36 2.92 2.61 2.46 2.56 2.69 2.71
1.14 0.69 0.71 0.87 0.83 0.87 0.91 0.58 0.58 0.64 0.88 0.99 0.75 0.92 0.67 0.59 0.58 0.63 0.66 0.68 0.75 0.82 0.87 0.93 1.02 1.24 1.45 1.55 1.72 1.96 2.27 2.47 2.47 2.68 2.88 2.87 2.80 2.86 2.67 2.49 2.50 2.57 2.63 2.71
1.20 0.77 0.79 0.95 0.71 0.73 0.76 0.56 0.66 0.76 0.94 1.05 0.73 0.86 0.76 0.56 0.64 0.66 0.67 0.74 0.80 0.77 0.81 0.91 0.98 1.05 1.21 1.32 1.43 1.63 2.01 2.31 2.40 2.43 2.56 2.70 2.71 2.69 2.75 2.69 2.63 2.55 2.45 2.51
0.89 0.79 0.89 0.82 0.61 0.69 0.78 0.89 1.01 1.07 1.41 1.48 0.67 0.74 0.78 0.66 0.70 0.65 0.58 0.66 0.73 0.70 0.76 0.83 0.86 0.92 1.09 1.14 1.17 1.32 1.55 1.97 2.31 2.39 2.40 2.44 2.47 2.43 2.52 2.64 2.61 2.59 2.45 2.33
1.08 0.89 0.82 0.83 1.00 1.01 1.23 1.81 2.29 2.19 2.04 1.14 0.41 0.57 0.81 0.70 0.61 0.64 0.60 0.57 0.63 0.68 0.70 0.75 0.81 0.93 1.01 1.07 1.04 1.11 1.22 1.53 1.92 2.13 2.18 2.21 2.24 2.25 2.23 2.36 2.51 2.50 2.38 2.24
1.17 1.05 0.75 0.86 1.18 1.26 1.20 1.57 1.82 1.48 0.98 0.55 0.38 0.58 0.75 0.65 0.56 0.52 0.46 0.44 0.51 0.60 0.62 0.67 0.71 0.79 0.84 0.88 0.93 1.01 1.09 1.22 1.43 1.64 1.83 1.96 2.04 2.05 1.97 1.98 2.20 2.31 2.20 2.12
0.99 0.82 0.51 0.62 0.77 0.95 1.16 1.23 1.08 1.31 0.89 0.63 0.50 0.53 0.56 0.44 0.45 0.45 0.41 0.40 0.45 0.48 0.49 0.53 0.58 0.64 0.65 0.70 0.77 0.85 0.90 0.99 1.13 1.27 1.47 1.70 1.78 1.86 1.88 1.85 1.94 2.17 2.17 2.02
0.97 1.00 0.58 0.63 0.89 1.01 1.06 1.04 1.25 1.87 1.49 0.88 0.51 0.46 0.58 0.51 0.48 0.51 0.47 0.41 0.40 0.39 0.42 0.46 0.52 0.58 0.61 0.63 0.59 0.61 0.73 0.87 0.98 1.03 1.18 1.40 1.57 1.65 1.71 1.77 1.79 1.87 1.95 1.92
0.85 1.20 0.85 0.84 1.12 1.07 1.07 1.29 1.44 1.53 1.29 1.14 0.78 0.65 0.61 0.53 0.51 0.51 0.50 0.43 0.40 0.38 0.41 0.44 0.46 0.52 0.61 0.64 0.57 0.53 0.61 0.73 0.82 0.87 0.96 1.09 1.27 1.42 1.52 1.57 1.59 1.62 1.67 1.75
0.83 1.35 1.07 0.74 0.65 0.71 0.90 1.05 1.28 1.73 1.35 1.05 0.89 0.73 0.54 0.46 0.45 0.47 0.49 0.47 0.44 0.43 0.44 0.44 0.43 0.47 0.57 0.65 0.64 0.57 0.58 0.63 0.72 0.78 0.84 0.96 1.04 1.17 1.34 1.45 1.45 1.43 1.44 1.49
1.15 1.63 1.49 1.06 0.92 0.92 1.06 0.94 1.00 1.40 1.73 1.37 1.10 0.75 0.48 0.38 0.36 0.40 0.45 0.48 0.46 0.47 0.49 0.47 0.46 0.47 0.54 0.63 0.68 0.62 0.60 0.61 0.65 0.74 0.76 0.86 0.95 1.00 1.07 1.20 1.30 1.34 1.37 1.41
1.41 1.65 1.37 1.15 1.08 1.10 1.04 0.83 0.95 1.69 2.14 1.29 0.75 0.52 0.39 0.37 0.42 0.43 0.44 0.47 0.51 0.52 0.53 0.52 0.55 0.54 0.57 0.60 0.66 0.63 0.65 0.62 0.60 0.69 0.74 0.74 0.86 0.93 0.95 0.98 1.08 1.16 1.19 1.25
1.15 1.50 1.00 0.66 0.54 0.72 0.77 0.76 0.88 1.27 1.32 1.25 0.75 0.49 0.45 0.46 0.52 0.52 0.48 0.44 0.45 0.47 0.49 0.50 0.53 0.57 0.59 0.57 0.63 0.64 0.65 0.65 0.60 0.63 0.70 0.72 0.77 0.82 0.90 0.95 1.00 1.08 1.10 1.14
0.93 1.24 1.00 0.72 0.45 0.55 0.64 0.62 0.66 0.78 0.85 0.86 0.65 0.61 0.52 0.48 0.46 0.44 0.43 0.41 0.43 0.45 0.48 0.47 0.45 0.50 0.52 0.58 0.64 0.68 0.68 0.67 0.64 0.61 0.64 0.69 0.74 0.78 0.83 0.89 0.95 0.99 1.06 1.12
0.86 1.11 1.28 0.90 0.51 0.64 0.80 0.73 0.72 0.74 0.74 0.76 0.79 0.72 0.58 0.53 0.49 0.48 0.46 0.42 0.43 0.41 0.41 0.42 0.43 0.46 0.48 0.52 0.59 0.66 0.68 0.66 0.66 0.65 0.64 0.67 0.72 0.78 0.83 0.86 0.93 1.04 1.10 1.22
0.60 0.96 1.42 1.06 0.74 0.94 0.76 0.59 0.60 0.64 0.68 0.71 0.69 0.60 0.55 0.52 0.50 0.49 0.46 0.41 0.39 0.38 0.37 0.36 0.38 0.39 0.40 0.43 0.50 0.60 0.64 0.65 0.67 0.68 0.71 0.74 0.74 0.83 0.92 0.94 0.97 1.06 1.14 1.25
0.35 0.81 1.38 1.22 0.93 0.64 0.43 0.41 0.55 0.64 0.68 0.65 0.53 0.44 0.41 0.41 0.41 0.43 0.40 0.37 0.38 0.38 0.40 0.39 0.39 0.41 0.40 0.42 0.48 0.57 0.64 0.65 0.67 0.69 0.73 0.77 0.80 0.90 1.00 0.99 1.00 1.05 1.10 1.17
0.33 0.67 1.34 1.28 1.09 0.63 0.43 0.27 0.31 0.49 0.73 0.53 0.46 0.44 0.44 0.44 0.52 0.46 0.38 0.35 0.36 0.35 0.36 0.41 0.44 0.42 0.45 0.47 0.49 0.58 0.68 0.77 0.81 0.81 0.83 0.86 0.95 1.05 1.08 1.05 1.03 0.99 0.98 0.99
0.52 0.94 1.24 1.08 1.02 0.56 0.39 0.24 0.26 0.67 0.81 0.44 0.42 0.45 0.47 0.51 0.54 0.46 0.36 0.33 0.37 0.39 0.39 0.41 0.46 0.48 0.51 0.53 0.54 0.58 0.65 0.81 0.89 0.92 0.94 0.96 1.02 1.06 1.07 1.03 0.96 0.92 0.86 0.86
0.49 0.69 0.77 0.82 1.06 0.77 0.41 0.32 0.59 0.75 0.47 0.39 0.40 0.44 0.47 0.46 0.39 0.34 0.35 0.35 0.34 0.35 0.37 0.43 0.50 0.54 0.54 0.59 0.66 0.66 0.70 0.78 0.84 0.88 0.91 0.91 0.92 0.95 0.99 0.98 0.93 0.88 0.86 0.85
0.52 0.66 0.69 0.73 0.82 0.70 0.54 0.58 0.60 0.50 0.45 0.39 0.40 0.42 0.42 0.41 0.40 0.34 0.32 0.33 0.35 0.38 0.39 0.45 0.55 0.60 0.61 0.62 0.66 0.71 0.69 0.68 0.72 0.78 0.83 0.82 0.79 0.80 0.83 0.86 0.87 0.88 0.87 0.85
0.48 0.40 0.51 0.61 0.62 0.53 0.50 0.44 0.40 0.40 0.43 0.39 0.37 0.38 0.41 0.43 0.40 0.37 0.35 0.35 0.33 0.35 0.39 0.45 0.50 0.55 0.57 0.58 0.59 0.62 0.58 0.56 0.58 0.63 0.70 0.74 0.74 0.74 0.73 0.74 0.80 0.86 0.88 0.85
0.52 0.46 0.50 0.56 0.50 0.41 0.40 0.40 0.40 0.37 0.34 0.31 0.29 0.30 0.36 0.39 0.38 0.37 0.38 0.37 0.37 0.37 0.40 0.44 0.49 0.54 0.56 0.53 0.54 0.54 0.53 0.51 0.53 0.54 0.58 0.62 0.68 0.73 0.75 0.75 0.80 0.87 0.88 0.94
0.43 0.48 0.57 0.62 0.49 0.49 0.50 0.42 0.38 0.36 0.35 0.33 0.31 0.30 0.29 0.32 0.37 0.34 0.36 0.35 0.36 0.41 0.41 0.42 0.45 0.50 0.56 0.55 0.52 0.52 0.52 0.51 0.56 0.57 0.57 0.60 0.66 0.70 0.73 0.75 0.79 0.88 0.91 0.95